Windom, MN

10:13 AM CDT on April 24, 2017 (GMT -0500)
Windom Municipal

Weather History for KMWM - July, 2012

Change the Weather History Date:

Wednesday, July 18, 2012

  Actual Average Record
Temperature  
Mean Temperature 76 °F -  
Max Temperature 84 °F 85 °F 98 °F (1957)
Min Temperature 69 °F 63 °F 50 °F (1950)
Cooling Degree Days 12    
Growing Degree Days 26 (Base 50)    
Moisture  
Dew Point 71 °F    
Average Humidity 82    
Maximum Humidity 100    
Minimum Humidity 58    
Precipitation  
Precipitation 0.00 in - - ()
Sea Level Pressure  
Sea Level Pressure 29.88 in    
Wind  
Wind Speed 6 mph (NE)    
Max Wind Speed 21 mph    
Max Gust Speed 29 mph    
Visibility 8 miles    
Events Fog , Rain    
Averages and records for this station are not official NWS values.
T = Trace of Precipitation, MM = Missing Value Source: NWS Daily Summary

Daily Weather History Graph

Daily Weather History Graph

Search for Another Location

Airport or City:

Trip Planner

Search our weather history database for the weather conditions in past years. The results will help you decide how hot, cold, wet, or windy it might be!

Date:

Astronomy

Jul. 18, 2012 Rise Set
Actual Time 5:55 AM CDT 8:57 PM CDT
Civil Twilight 5:20 AM CDT 9:32 PM CDT
Nautical Twilight 4:36 AM CDT 10:16 PM CDT
Astronomical Twilight 3:43 AM CDT 11:08 PM CDT
Moon 5:31 AM CDT (7/18) 8:25 PM CDT (7/18)
Length of Visible Light 16h 11m
Length of Day
15h 02m
Waning Crescent, 0% of the Moon is Illuminated
Jul 18
Waning Crescent
Jul 18
New
Jul 26
First Quarter
Aug 1
Full
Aug 9
Last Quarter

Hourly Weather History & Observations

Time (CDT) Temp. Heat Index Dew Point Humidity Pressure Visibility Wind Dir Wind Speed Gust Speed Precip Events Conditions
12:12 AM 77.0 °F - 71.6 °F 83% 29.87 in 10.0 mi NE 8.1 mph - N/A   Clear
12:32 AM 75.2 °F - 71.6 °F 89% 29.87 in 10.0 mi NE 4.6 mph - N/A   Clear
12:53 AM 75.2 °F - 71.6 °F 89% 29.87 in 10.0 mi NNE 6.9 mph - N/A   Clear
1:13 AM 75.2 °F - 71.6 °F 89% 29.87 in 10.0 mi NNE 4.6 mph - N/A   Clear
1:32 AM 73.4 °F - 71.6 °F 94% 29.86 in 10.0 mi NE 4.6 mph - N/A   Clear
1:53 AM 73.4 °F - 71.6 °F 94% 29.86 in 10.0 mi ENE 5.8 mph - N/A   Clear
2:12 AM 73.4 °F - 69.8 °F 88% 29.86 in 10.0 mi NNE 3.5 mph - N/A   Scattered Clouds
2:32 AM 73.4 °F - 69.8 °F 88% 29.85 in 10.0 mi ENE 8.1 mph - N/A   Scattered Clouds
2:53 AM 71.6 °F - 69.8 °F 94% 29.85 in 10.0 mi ENE 5.8 mph - N/A   Scattered Clouds
3:13 AM 71.6 °F - 69.8 °F 94% 29.85 in 7.0 mi ENE 4.6 mph - N/A   Clear
3:32 AM 71.6 °F - 69.8 °F 94% 29.84 in 7.0 mi ENE 4.6 mph - N/A   Clear
3:53 AM 71.6 °F - 69.8 °F 94% 29.84 in 7.0 mi NE 6.9 mph - N/A   Clear
4:12 AM 71.6 °F - 69.8 °F 94% 29.84 in 7.0 mi Calm Calm - N/A   Scattered Clouds
4:33 AM 71.6 °F - 69.8 °F 94% 29.85 in 5.0 mi NE 4.6 mph - N/A   Scattered Clouds
4:52 AM 71.6 °F - 69.8 °F 94% 29.85 in 5.0 mi Calm Calm - N/A   Mostly Cloudy
5:12 AM 71.6 °F - 69.8 °F 94% 29.85 in 4.0 mi Calm Calm - N/A   Scattered Clouds
5:33 AM 71.6 °F - 69.8 °F 94% 29.85 in 5.0 mi Calm Calm - N/A   Scattered Clouds
5:52 AM 71.6 °F - 69.8 °F 94% 29.85 in 5.0 mi Calm Calm - N/A   Clear
6:12 AM 69.8 °F - 69.8 °F 100% 29.85 in 0.5 mi Calm Calm - N/A Fog Fog
6:33 AM 71.6 °F - 69.8 °F 94% 29.86 in 3.0 mi Calm Calm - N/A   Scattered Clouds
6:52 AM 73.4 °F - 71.6 °F 94% 29.86 in 2.0 mi SE 4.6 mph - N/A   Mostly Cloudy
7:12 AM 73.4 °F - 71.6 °F 94% 29.85 in 2.5 mi Calm Calm - N/A   Scattered Clouds
7:33 AM 75.2 °F - 73.4 °F 94% 29.85 in 5.0 mi SSE 3.5 mph - N/A   Clear
7:52 AM 78.8 °F - 73.4 °F 83% 29.86 in 10.0 mi Calm Calm - N/A   Scattered Clouds
8:12 AM 73.4 °F - 69.8 °F 88% 29.90 in 10.0 mi NW 20.7 mph 28.8 mph N/A   Mostly Cloudy
8:33 AM 71.6 °F - 68.0 °F 88% 29.92 in 10.0 mi NNW 16.1 mph 25.3 mph N/A   Overcast
8:52 AM 73.4 °F - 68.0 °F 83% 29.91 in 10.0 mi North 13.8 mph 20.7 mph N/A   Overcast
9:13 AM 73.4 °F - 68.0 °F 83% 29.91 in 10.0 mi North 13.8 mph - N/A   Mostly Cloudy
9:32 AM 77.0 °F - 69.8 °F 78% 29.90 in 10.0 mi NNE 10.4 mph - N/A   Scattered Clouds
9:52 AM 78.8 °F - 68.0 °F 69% 29.89 in 10.0 mi NNE 11.5 mph 16.1 mph N/A   Clear
10:12 AM 80.6 °F 83.2 °F 68.0 °F 65% 29.89 in 10.0 mi North 10.4 mph - N/A   Clear
10:32 AM 82.4 °F 85.4 °F 68.0 °F 62% 29.89 in 10.0 mi NNE 9.2 mph - N/A   Clear
10:53 AM 82.4 °F 85.4 °F 68.0 °F 62% 29.89 in 10.0 mi NNE 11.5 mph - N/A   Clear
11:12 AM 84.2 °F 87.3 °F 68.0 °F 58% 29.89 in 10.0 mi NE 10.4 mph - N/A   Clear
11:32 AM 84.2 °F 88.4 °F 69.8 °F 62% 29.88 in 10.0 mi NE 9.2 mph - N/A   Clear
11:53 AM 82.4 °F 86.3 °F 69.8 °F 66% 29.89 in 10.0 mi ENE 8.1 mph - N/A   Clear
12:12 PM 82.4 °F 86.3 °F 69.8 °F 66% 29.89 in 10.0 mi NE 10.4 mph - N/A   Scattered Clouds
12:32 PM 82.4 °F 86.3 °F 69.8 °F 66% 29.90 in 10.0 mi ENE 8.1 mph - N/A   Scattered Clouds
12:53 PM 82.4 °F 87.2 °F 71.6 °F 70% 29.92 in 10.0 mi WNW 10.4 mph - N/A   Scattered Clouds
1:12 PM 82.4 °F 87.2 °F 71.6 °F 70% 29.92 in 10.0 mi NNW 9.2 mph - N/A   Scattered Clouds
1:33 PM 80.6 °F 85.4 °F 73.4 °F 79% 29.92 in 7.0 mi NNW 6.9 mph - N/A Rain Rain
1:52 PM 78.8 °F - 73.4 °F 83% 29.92 in 10.0 mi North 4.6 mph - N/A Rain Light Rain
2:13 PM 78.8 °F - 73.4 °F 83% 29.91 in 10.0 mi ENE 4.6 mph - N/A Rain Light Rain
2:33 PM 78.8 °F - 73.4 °F 83% 29.91 in 10.0 mi ENE 6.9 mph - N/A   Clear
2:52 PM 78.8 °F - 71.6 °F 78% 29.90 in 10.0 mi East 6.9 mph - N/A   Clear
3:13 PM 80.6 °F 84.6 °F 71.6 °F 74% 29.88 in 10.0 mi East 5.8 mph - N/A   Clear
3:32 PM 82.4 °F 88.2 °F 73.4 °F 74% 29.87 in 10.0 mi ENE 4.6 mph - N/A   Clear
3:52 PM 82.4 °F 87.2 °F 71.6 °F 70% 29.85 in 10.0 mi Calm Calm - N/A   Clear
4:13 PM 84.2 °F 89.6 °F 71.6 °F 66% 29.88 in 10.0 mi East 5.8 mph - N/A   Clear
4:32 PM 84.2 °F 89.6 °F 71.6 °F 66% 29.89 in 10.0 mi NE 8.1 mph - N/A   Clear
4:53 PM 84.2 °F 88.4 °F 69.8 °F 62% 29.88 in 10.0 mi NNE 5.8 mph - N/A   Clear
5:13 PM 84.2 °F 88.4 °F 69.8 °F 62% 29.88 in 10.0 mi North 5.8 mph - N/A   Clear
5:32 PM 84.2 °F 88.4 °F 69.8 °F 62% 29.89 in 10.0 mi North 5.8 mph - N/A   Clear
5:53 PM 84.2 °F 88.4 °F 69.8 °F 62% 29.88 in 10.0 mi NE 5.8 mph - N/A   Clear
6:13 PM 84.2 °F 89.6 °F 71.6 °F 66% 29.88 in 10.0 mi ENE 9.2 mph - N/A   Clear
6:32 PM 84.2 °F 89.6 °F 71.6 °F 66% 29.88 in 10.0 mi ENE 8.1 mph - N/A   Clear
6:53 PM 82.4 °F 87.2 °F 71.6 °F 70% 29.89 in 10.0 mi NE 4.6 mph - N/A   Clear
7:13 PM 82.4 °F 87.2 °F 71.6 °F 70% 29.88 in 10.0 mi North 4.6 mph - N/A   Clear
7:32 PM 82.4 °F 88.2 °F 73.4 °F 74% 29.88 in 10.0 mi North 5.8 mph - N/A   Clear
7:53 PM 82.4 °F 88.2 °F 73.4 °F 74% 29.88 in 10.0 mi NNE 3.5 mph - N/A   Clear
8:13 PM 80.6 °F 85.4 °F 73.4 °F 79% 29.88 in 10.0 mi ENE 3.5 mph - N/A   Clear
8:32 PM 78.8 °F - 73.4 °F 83% 29.88 in 10.0 mi Calm Calm - N/A   Clear
8:53 PM 77.0 °F - 73.4 °F 89% 29.89 in 10.0 mi Calm Calm - N/A   Clear
9:13 PM 75.2 °F - 71.6 °F 89% 29.90 in 10.0 mi Calm Calm - N/A   Clear
9:32 PM 73.4 °F - 71.6 °F 94% 29.91 in 10.0 mi East 3.5 mph - N/A   Clear
9:53 PM 73.4 °F - 71.6 °F 94% 29.92 in 10.0 mi Calm Calm - N/A   Clear
10:13 PM 73.4 °F - 71.6 °F 94% 29.92 in 5.0 mi Calm Calm - N/A   Clear
10:32 PM 71.6 °F - 71.6 °F 100% 29.93 in 4.0 mi Calm Calm - N/A   Clear
10:53 PM 71.6 °F - 69.8 °F 94% 29.94 in 2.0 mi ENE 3.5 mph - N/A   Clear
11:13 PM 71.6 °F - 69.8 °F 94% 29.94 in 1.8 mi ENE 3.5 mph - N/A   Mostly Cloudy
11:32 PM 71.6 °F - 71.6 °F 100% 29.94 in 2.5 mi Calm Calm - N/A   Mostly Cloudy
11:53 PM 73.4 °F - 71.6 °F 94% 29.94 in 3.0 mi Calm Calm - N/A   Overcast